START_TIME,STEP,MOV.,M35,t_acc.,PL05,t_acc.,PL06,t_acc.,PL07,t_acc.
1979-03-01 12:00:13.360 ,4,0,0.,4.8,5.,4.8,0.,4.8,0.,4.8
1979-03-01 12:00:18.160 ,4,0,0.,4.8,8.,4.8,1.,4.8,1.,4.8
1979-03-01 12:00:22.960 ,4,0,0.,4.8,10.,4.8,3.,4.8,0.,4.8
1979-03-01 12:00:27.760 ,4,0,0.,4.8,10.,4.8,5.,4.8,4.,4.8
1979-03-01 12:00:32.560 ,4,0,0.,4.8,7.,4.8,5.,4.8,5.,4.8
1979-03-01 12:00:37.360 ,3,0,0.,4.8,6.,4.8,4.,4.8,4.,4.8
1979-03-01 12:00:42.160 ,3,0,0.,4.8,12.,4.8,4.,4.8,4.,4.8
1979-03-01 12:00:46.960 ,3,0,1.,4.8,10.,4.8,3.,4.8,4.,4.8
1979-03-01 12:00:51.760 ,3,0,0.,4.8,8.,4.8,4.,4.8,4.,4.8
1979-03-01 12:00:56.560 ,3,0,1.,4.8,12.,4.8,1.,4.8,2.,4.8
1979-03-01 12:01:01.360 ,2,0,1.,4.8,12.,4.8,3.,4.8,0.,4.8
1979-03-01 12:01:06.160 ,2,0,0.,4.8,6.,4.8,4.,4.8,1.,4.8
1979-03-01 12:01:10.960 ,2,0,0.,4.8,8.,4.8,1.,4.8,1.,4.8
1979-03-01 12:01:15.760 ,2,0,0.,4.8,12.,4.8,3.,4.8,1.,4.8
1979-03-01 12:01:20.560 ,2,0,0.,4.8,13.,4.8,1.,4.8,0.,4.8
1979-03-01 12:01:25.360 ,1,0,0.,4.8,8.,4.8,1.,4.8,0.,4.8
1979-03-01 12:01:30.160 ,1,0,0.,4.8,7.,4.8,4.,4.8,1.,4.8
1979-03-01 12:01:34.960 ,1,0,0.,4.8,16.,4.8,0.,4.8,0.,4.8
1979-03-01 12:01:39.760 ,1,0,0.,4.8,11.,4.8,4.,4.8,0.,4.8
1979-03-01 12:01:44.560 ,1,0,0.,4.8,15.,4.8,1.,4.8,0.,4.8
1979-03-01 12:01:49.360 ,0,0,0.,4.8,12.,4.8,4.,4.8,0.,4.8
1979-03-01 12:01:54.160 ,0,0,0.,4.8,14.,4.8,1.,4.8,2.,4.8
1979-03-01 12:01:58.960 ,0,0,0.,4.8,9.,4.8,0.,4.8,1.,4.8
1979-03-01 12:02:03.760 ,0,0,0.,4.8,18.,4.8,3.,4.8,2.,4.8
1979-03-01 12:02:08.560 ,0,0,0.,4.8,12.,4.8,4.,4.8,0.,4.8
1979-03-01 12:02:13.350 ,0,0,0.,4.8,8.,4.8,5.,4.8,0.,4.8
1979-03-01 12:02:18.150 ,0,0,0.,4.8,7.,4.8,2.,4.8,0.,4.8
1979-03-01 12:02:22.960 ,0,0,0.,4.8,5.,4.8,4.,4.8,0.,4.8
1979-03-01 12:02:27.760 ,0,0,0.,4.8,10.,4.8,3.,4.8,2.,4.8
1979-03-01 12:02:32.560 ,0,0,0.,4.8,11.,4.8,1.,4.8,0.,4.8
1979-03-01 12:02:37.360 ,1,0,0.,4.8,10.,4.8,4.,4.8,1.,4.8
1979-03-01 12:02:42.160 ,1,0,0.,4.8,12.,4.8,6.,4.8,0.,4.8
1979-03-01 12:02:46.960 ,1,0,0.,4.8,4.,4.8,3.,4.8,1.,4.8
1979-03-01 12:02:51.760 ,1,0,0.,4.8,8.,4.8,4.,4.8,1.,4.8
1979-03-01 12:02:56.560 ,1,0,0.,4.8,7.,4.8,3.,4.8,1.,4.8
1979-03-01 12:03:01.350 ,2,0,0.,4.8,12.,4.8,2.,4.8,1.,4.8
1979-03-01 12:03:06.150 ,2,0,0.,4.8,16.,4.8,2.,4.8,1.,4.8
1979-03-01 12:03:10.960 ,2,0,0.,4.8,5.,4.8,1.,4.8,2.,4.8
1979-03-01 12:03:15.760 ,2,0,0.,4.8,12.,4.8,5.,4.8,3.,4.8
1979-03-01 12:03:20.560 ,2,0,0.,4.8,7.,4.8,0.,4.8,0.,4.8
1979-03-01 12:03:25.350 ,3,0,0.,4.8,6.,4.8,3.,4.8,1.,4.8
1979-03-01 12:03:30.150 ,3,0,0.,4.8,10.,4.8,0.,4.8,2.,4.8
1979-03-01 12:03:34.960 ,3,0,1.,4.8,11.,4.8,4.,4.8,1.,4.8
1979-03-01 12:03:39.760 ,3,0,0.,4.8,6.,4.8,3.,4.8,4.,4.8
1979-03-01 12:03:44.560 ,3,0,0.,4.8,9.,4.8,4.,4.8,3.,4.8
1979-03-01 12:03:49.360 ,4,0,0.,4.8,5.,4.8,5.,4.8,2.,4.8
1979-03-01 12:03:54.150 ,4,0,2.,4.8,0.,4.8,3.,4.8,2.,4.8
1979-03-01 12:03:58.960 ,4,0,0.,4.8,10.,4.8,10.,4.8,7.,4.8
1979-03-01 12:04:03.760 ,4,0,0.,4.8,9.,4.8,7.,4.8,2.,4.8
1979-03-01 12:04:08.560 ,4,0,0.,4.8,9.,4.8,4.,4.8,6.,4.8
1979-03-01 12:04:13.350 ,5,0,0.,4.8,13.,4.8,3.,4.8,3.,4.8
1979-03-01 12:04:18.150 ,5,0,0.,4.8,15.,4.8,8.,4.8,5.,4.8
1979-03-01 12:04:22.960 ,5,0,0.,4.8,2.,4.8,2.,4.8,0.,4.8
1979-03-01 12:04:27.760 ,5,0,0.,4.8,5.,4.8,0.,4.8,0.,4.8
1979-03-01 12:04:32.560 ,5,0,0.,4.8,2.,4.8,1.,4.8,0.,4.8
1979-03-01 12:04:37.350 ,6,0,0.,4.8,4.,4.8,0.,4.8,2.,4.8
1979-03-01 12:04:42.150 ,6,0,0.,4.8,6.,4.8,2.,4.8,0.,4.8
1979-03-01 12:04:46.950 ,6,0,0.,4.8,4.,4.8,0.,4.8,2.,4.8
1979-03-01 12:04:51.760 ,6,0,0.,4.8,3.,4.8,0.,4.8,0.,4.8
1979-03-01 12:04:56.550 ,6,0,0.,4.8,4.,4.8,0.,4.8,1.,4.8
1979-03-01 12:05:01.350 ,7,0,0.,4.8,5.,4.8,2.,4.8,0.,4.8
1979-03-01 12:05:06.150 ,7,0,0.,4.8,6.,4.8,0.,4.8,0.,4.8
1979-03-01 12:05:10.950 ,7,0,0.,4.8,1.,4.8,2.,4.8,0.,4.8
1979-03-01 12:05:15.760 ,7,0,0.,4.8,2.,4.8,0.,4.8,0.,4.8
1979-03-01 12:05:20.550 ,7,0,0.,4.8,0.,4.8,0.,4.8,0.,4.8
1979-03-01 12:05:25.350 ,7,0,0.,4.8,0.,4.8,0.,4.8,0.,4.8
1979-03-01 12:05:30.150 ,7,0,0.,4.8,1.,4.8,0.,4.8,0.,4.8
1979-03-01 12:05:34.950 ,7,0,0.,4.8,1.,4.8,0.,4.8,0.,4.8
1979-03-01 12:05:39.760 ,7,0,0.,4.8,0.,4.8,0.,4.8,0.,4.8
1979-03-01 12:05:44.550 ,7,0,0.,4.8,0.,4.8,1.,4.8,0.,4.8
1979-03-01 12:05:49.350 ,6,0,0.,4.8,0.,4.8,1.,4.8,0.,4.8
1979-03-01 12:05:54.150 ,6,0,0.,4.8,0.,4.8,0.,4.8,0.,4.8
1979-03-01 12:05:58.950 ,6,0,0.,4.8,8.,4.8,0.,4.8,0.,4.8
1979-03-01 12:06:03.760 ,6,0,0.,4.8,4.,4.8,2.,4.8,2.,4.8
1979-03-01 12:06:08.550 ,6,0,0.,4.8,7.,4.8,0.,4.8,2.,4.8
1979-03-01 12:06:13.350 ,5,0,0.,4.8,4.,4.8,3.,4.8,1.,4.8
1979-03-01 12:06:18.150 ,5,0,0.,4.8,3.,4.8,1.,4.8,0.,4.8
1979-03-01 12:06:22.950 ,5,0,0.,4.8,6.,4.8,0.,4.8,0.,4.8
1979-03-01 12:06:27.760 ,5,0,0.,4.8,6.,4.8,1.,4.8,1.,4.8
1979-03-01 12:06:32.550 ,5,0,0.,4.8,3.,4.8,0.,4.8,0.,4.8
1979-03-01 12:06:37.350 ,4,0,0.,4.8,4.,4.8,2.,4.8,0.,4.8
1979-03-01 12:06:42.150 ,4,0,0.,4.8,5.,4.8,0.,4.8,0.,4.8
1979-03-01 12:06:46.950 ,4,0,0.,4.8,8.,4.8,5.,4.8,3.,4.8
1979-03-01 12:06:51.760 ,4,0,0.,4.8,12.,4.8,1.,4.8,3.,4.8
1979-03-01 12:06:56.550 ,4,0,0.,4.8,8.,4.8,4.,4.8,2.,4.8
1979-03-01 12:07:01.350 ,3,0,0.,4.8,10.,4.8,2.,4.8,0.,4.8
1979-03-01 12:07:06.150 ,3,0,0.,4.8,8.,4.8,5.,4.8,3.,4.8
1979-03-01 12:07:10.950 ,3,0,0.,4.8,13.,4.8,4.,4.8,4.,4.8
1979-03-01 12:07:15.760 ,3,0,1.,4.8,13.,4.8,7.,4.8,3.,4.8
1979-03-01 12:07:20.550 ,3,0,0.,4.8,12.,4.8,2.,4.8,3.,4.8
1979-03-01 12:07:25.350 ,2,0,0.,4.8,10.,4.8,4.,4.8,2.,4.8
1979-03-01 12:07:30.150 ,2,0,0.,4.8,14.,4.8,2.,4.8,5.,4.8
1979-03-01 12:07:34.950 ,2,0,0.,4.8,16.,4.8,1.,4.8,0.,4.8
1979-03-01 12:07:39.760 ,2,0,0.,4.8,11.,4.8,0.,4.8,3.,4.8
1979-03-01 12:07:44.550 ,2,0,0.,4.8,17.,4.8,5.,4.8,1.,4.8
1979-03-01 12:07:49.350 ,1,0,0.,4.8,7.,4.8,2.,4.8,0.,4.8
1979-03-01 12:07:54.150 ,1,0,0.,4.8,18.,4.8,5.,4.8,1.,4.8
1979-03-01 12:07:58.950 ,1,0,0.,4.8,10.,4.8,3.,4.8,1.,4.8
1979-03-01 12:08:03.760 ,1,0,0.,4.8,13.,4.8,3.,4.8,0.,4.8
1979-03-01 12:08:08.550 ,1,0,0.,4.8,17.,4.8,2.,4.8,1.,4.8
1979-03-01 12:08:13.350 ,0,0,0.,4.8,16.,4.8,2.,4.8,1.,4.8
1979-03-01 12:08:18.150 ,0,0,0.,4.8,12.,4.8,2.,4.8,2.,4.8
1979-03-01 12:08:22.950 ,0,0,0.,4.8,12.,4.8,3.,4.8,0.,4.8
1979-03-01 12:08:27.760 ,0,0,0.,4.8,8.,4.8,3.,4.8,2.,4.8
1979-03-01 12:08:32.550 ,0,0,0.,4.8,6.,4.8,1.,4.8,1.,4.8
1979-03-01 12:08:37.360 ,0,0,0.,4.8,9.,4.8,3.,4.8,1.,4.8
1979-03-01 12:08:42.160 ,0,0,0.,4.8,10.,4.8,1.,4.8,1.,4.8
1979-03-01 12:08:46.960 ,0,0,0.,4.8,13.,4.8,6.,4.8,3.,4.8
1979-03-01 12:08:51.760 ,0,0,0.,4.8,13.,4.8,2.,4.8,1.,4.8
1979-03-01 12:08:56.560 ,0,0,0.,4.8,5.,4.8,2.,4.8,1.,4.8
1979-03-01 12:09:01.360 ,1,0,0.,4.8,9.,4.8,5.,4.8,2.,4.8
1979-03-01 12:09:06.160 ,1,0,0.,4.8,8.,4.8,2.,4.8,2.,4.8
1979-03-01 12:09:10.960 ,1,0,0.,4.8,15.,4.8,5.,4.8,0.,4.8
1979-03-01 12:09:15.760 ,1,0,0.,4.8,15.,4.8,2.,4.8,1.,4.8
1979-03-01 12:09:20.560 ,1,0,0.,4.8,10.,4.8,7.,4.8,2.,4.8
1979-03-01 12:09:25.360 ,2,0,0.,4.8,13.,4.8,2.,4.8,3.,4.8
1979-03-01 12:09:30.160 ,2,0,0.,4.8,10.,4.8,1.,4.8,3.,4.8
1979-03-01 12:09:34.960 ,2,0,0.,4.8,8.,4.8,4.,4.8,0.,4.8
1979-03-01 12:09:39.760 ,2,0,0.,4.8,15.,4.8,3.,4.8,2.,4.8
1979-03-01 12:09:44.560 ,2,0,0.,4.8,8.,4.8,2.,4.8,0.,4.8
1979-03-01 12:09:49.360 ,3,0,0.,4.8,19.,4.8,2.,4.8,1.,4.8
1979-03-01 12:09:54.160 ,3,0,0.,4.8,9.,4.8,1.,4.8,3.,4.8
1979-03-01 12:09:58.960 ,3,0,0.,4.8,7.,4.8,3.,4.8,3.,4.8
1979-03-01 12:10:03.760 ,3,0,0.,4.8,11.,4.8,3.,4.8,5.,4.8
1979-03-01 12:10:08.560 ,3,0,0.,4.8,8.,4.8,12.,4.8,4.,4.8
1979-03-01 12:10:13.360 ,4,0,1.,4.8,17.,4.8,3.,4.8,3.,4.8
1979-03-01 12:10:18.160 ,4,0,1.,4.8,11.,4.8,4.,4.8,1.,4.8
1979-03-01 12:10:22.960 ,4,0,0.,4.8,6.,4.8,6.,4.8,5.,4.8
1979-03-01 12:10:27.760 ,4,0,0.,4.8,8.,4.8,3.,4.8,5.,4.8
1979-03-01 12:10:32.560 ,4,0,0.,4.8,15.,4.8,4.,4.8,4.,4.8
1979-03-01 12:10:37.360 ,5,0,0.,4.8,11.,4.8,2.,4.8,1.,4.8
1979-03-01 12:10:42.160 ,5,0,1.,4.8,5.,4.8,8.,4.8,1.,4.8
1979-03-01 12:10:46.960 ,5,0,0.,4.8,7.,4.8,2.,4.8,1.,4.8
1979-03-01 12:10:51.760 ,5,0,0.,4.8,4.,4.8,1.,4.8,1.,4.8
1979-03-01 12:10:56.560 ,5,0,0.,4.8,3.,4.8,2.,4.8,0.,4.8
1979-03-01 12:11:01.360 ,6,0,0.,4.8,6.,4.8,0.,4.8,1.,4.8
1979-03-01 12:11:06.160 ,6,0,0.,4.8,2.,4.8,1.,4.8,0.,4.8
1979-03-01 12:11:10.960 ,6,0,0.,4.8,4.,4.8,3.,4.8,0.,4.8
1979-03-01 12:11:15.760 ,6,0,0.,4.8,7.,4.8,6.,4.8,0.,4.8
1979-03-01 12:11:20.560 ,6,0,0.,4.8,7.,4.8,1.,4.8,1.,4.8
1979-03-01 12:11:25.360 ,7,0,0.,4.8,4.,4.8,0.,4.8,0.,4.8
1979-03-01 12:11:30.160 ,7,0,0.,4.8,3.,4.8,0.,4.8,0.,4.8
1979-03-01 12:11:34.960 ,7,0,0.,4.8,0.,4.8,1.,4.8,0.,4.8
1979-03-01 12:11:39.760 ,7,0,0.,4.8,0.,4.8,0.,4.8,0.,4.8
1979-03-01 12:11:44.560 ,7,0,0.,4.8,1.,4.8,0.,4.8,0.,4.8
1979-03-01 12:11:49.360 ,7,0,0.,4.8,0.,4.8,0.,4.8,0.,4.8
1979-03-01 12:11:54.160 ,7,0,0.,4.8,1.,4.8,1.,4.8,0.,4.8
1979-03-01 12:11:58.960 ,7,0,0.,4.8,0.,4.8,1.,4.8,0.,4.8
1979-03-01 12:12:03.760 ,7,0,0.,4.8,0.,4.8,1.,4.8,1.,4.8
1979-03-01 12:12:08.560 ,7,0,0.,4.8,0.,4.8,0.,4.8,2.,4.8
1979-03-01 12:12:13.360 ,6,0,0.,4.8,0.,4.8,2.,4.8,0.,4.8
1979-03-01 12:12:18.160 ,6,0,0.,4.8,0.,4.8,0.,4.8,0.,4.8
1979-03-01 12:12:22.960 ,6,0,0.,4.8,6.,4.8,0.,4.8,0.,4.8
1979-03-01 12:12:27.760 ,6,0,0.,4.8,2.,4.8,0.,4.8,2.,4.8
1979-03-01 12:12:32.560 ,6,0,0.,4.8,7.,4.8,2.,4.8,1.,4.8
1979-03-01 12:12:37.360 ,5,0,0.,4.8,11.,4.8,1.,4.8,0.,4.8
1979-03-01 12:12:42.160 ,5,0,0.,4.8,4.,4.8,1.,4.8,2.,4.8
1979-03-01 12:12:46.960 ,5,0,0.,4.8,7.,4.8,0.,4.8,0.,4.8
1979-03-01 12:12:51.760 ,5,0,0.,4.8,4.,4.8,0.,4.8,1.,4.8
1979-03-01 12:12:56.560 ,5,0,0.,4.8,5.,4.8,3.,4.8,1.,4.8
1979-03-01 12:13:01.360 ,4,0,0.,4.8,4.,4.8,3.,4.8,1.,4.8
1979-03-01 12:13:06.160 ,4,0,0.,4.8,2.,4.8,1.,4.8,0.,4.8
1979-03-01 12:13:10.960 ,4,0,0.,4.8,9.,4.8,4.,4.8,3.,4.8
1979-03-01 12:13:15.760 ,4,0,0.,4.8,8.,4.8,2.,4.8,2.,4.8
1979-03-01 12:13:20.560 ,4,0,0.,4.8,6.,4.8,3.,4.8,2.,4.8
1979-03-01 12:14:13.360 ,0,0,0.,4.8,16.,4.8,2.,4.8,3.,4.8
1979-03-01 12:14:18.160 ,0,0,0.,4.8,12.,4.8,4.,4.8,0.,4.8
1979-03-01 12:14:22.960 ,0,0,0.,4.8,9.,4.8,2.,4.8,1.,4.8
1979-03-01 12:14:27.760 ,0,0,0.,4.8,13.,4.8,5.,4.8,1.,4.8
1979-03-01 12:14:32.560 ,0,0,0.,4.8,8.,4.8,5.,4.8,0.,4.8
1979-03-01 12:14:37.360 ,0,0,0.,4.8,15.,4.8,1.,4.8,3.,4.8
1979-03-01 12:14:42.160 ,0,0,0.,4.8,10.,4.8,0.,4.8,2.,4.8
1979-03-01 12:14:46.960 ,0,0,0.,4.8,17.,4.8,3.,4.8,0.,4.8
1979-03-01 12:14:51.760 ,0,0,0.,4.8,6.,4.8,7.,4.8,0.,4.8
1979-03-01 12:14:56.560 ,0,0,0.,4.8,15.,4.8,8.,4.8,1.,4.8
1979-03-01 12:15:01.360 ,0,0,0.,4.8,6.,4.8,4.,4.8,4.,4.8
1979-03-01 12:15:06.160 ,0,0,0.,4.8,13.,4.8,5.,4.8,2.,4.8
1979-03-01 12:15:10.960 ,0,0,0.,4.8,12.,4.8,1.,4.8,0.,4.8
1979-03-01 12:15:15.760 ,0,0,0.,4.8,16.,4.8,2.,4.8,1.,4.8
1979-03-01 12:15:20.560 ,0,0,0.,4.8,12.,4.8,2.,4.8,0.,4.8
1979-03-01 12:15:25.360 ,1,0,0.,4.8,10.,4.8,3.,4.8,4.,4.8
1979-03-01 12:15:30.160 ,1,0,0.,4.8,15.,4.8,4.,4.8,1.,4.8
1979-03-01 12:15:34.960 ,1,0,0.,4.8,13.,4.8,2.,4.8,0.,4.8
1979-03-01 12:15:39.760 ,1,0,0.,4.8,20.,4.8,2.,4.8,3.,4.8
1979-03-01 12:15:44.560 ,1,0,0.,4.8,17.,4.8,9.,4.8,2.,4.8
1979-03-01 12:15:49.360 ,2,0,0.,4.8,15.,4.8,3.,4.8,0.,4.8
1979-03-01 12:15:54.160 ,2,0,0.,4.8,19.,4.8,3.,4.8,0.,4.8
1979-03-01 12:15:58.960 ,2,0,0.,4.8,14.,4.8,7.,4.8,4.,4.8
1979-03-01 12:16:03.760 ,2,0,0.,4.8,20.,4.8,5.,4.8,0.,4.8
1979-03-01 12:16:08.560 ,2,0,0.,4.8,15.,4.8,6.,4.8,2.,4.8
1979-03-01 12:16:13.360 ,3,0,0.,4.8,7.,4.8,4.,4.8,2.,4.8
1979-03-01 12:16:18.160 ,3,0,0.,4.8,11.,4.8,3.,4.8,1.,4.8
1979-03-01 12:16:22.960 ,3,0,0.,4.8,12.,4.8,4.,4.8,6.,4.8
1979-03-01 12:16:27.760 ,3,0,0.,4.8,7.,4.8,5.,4.8,1.,4.8
1979-03-01 12:16:32.560 ,3,0,1.,4.8,14.,4.8,6.,4.8,5.,4.8
1979-03-01 12:16:37.360 ,4,0,0.,4.8,8.,4.8,5.,4.8,1.,4.8
1979-03-01 12:16:42.160 ,4,0,0.,4.8,17.,4.8,3.,4.8,3.,4.8
1979-03-01 12:16:46.960 ,4,0,0.,4.8,15.,4.8,4.,4.8,2.,4.8
1979-03-01 12:16:51.760 ,4,0,0.,4.8,10.,4.8,4.,4.8,1.,4.8
1979-03-01 12:16:56.560 ,4,0,0.,4.8,11.,4.8,5.,4.8,0.,4.8
1979-03-01 12:17:01.360 ,5,0,0.,4.8,10.,4.8,3.,4.8,1.,4.8
1979-03-01 12:17:06.160 ,5,0,0.,4.8,8.,4.8,2.,4.8,5.,4.8
1979-03-01 12:17:10.960 ,5,0,0.,4.8,7.,4.8,2.,4.8,1.,4.8
1979-03-01 12:17:15.760 ,5,0,0.,4.8,7.,4.8,1.,4.8,0.,4.8
1979-03-01 12:17:20.560 ,5,0,0.,4.8,3.,4.8,0.,4.8,0.,4.8
1979-03-01 12:17:25.350 ,6,0,0.,4.8,8.,4.8,5.,4.8,0.,4.8
1979-03-01 12:17:30.150 ,6,0,0.,4.8,7.,4.8,4.,4.8,0.,4.8
1979-03-01 12:17:34.950 ,6,0,0.,4.8,6.,4.8,1.,4.8,0.,4.8
1979-03-01 12:17:39.760 ,6,0,0.,4.8,8.,4.8,3.,4.8,1.,4.8
1979-03-01 12:17:44.550 ,6,0,0.,4.8,9.,4.8,4.,4.8,0.,4.8
1979-03-01 12:17:49.350 ,7,0,0.,4.8,7.,4.8,1.,4.8,1.,4.8
1979-03-01 12:17:54.150 ,7,0,0.,4.8,6.,4.8,0.,4.8,2.,4.8
1979-03-01 12:17:58.950 ,7,0,0.,4.8,2.,4.8,1.,4.8,1.,4.8
1979-03-01 12:18:03.760 ,7,0,0.,4.8,1.,4.8,3.,4.8,1.,4.8
1979-03-01 12:18:08.550 ,7,0,0.,4.8,0.,4.8,0.,4.8,0.,4.8
1979-03-01 12:18:13.350 ,7,0,0.,4.8,1.,4.8,0.,4.8,0.,4.8
1979-03-01 12:18:18.150 ,7,0,0.,4.8,1.,4.8,0.,4.8,0.,4.8
1979-03-01 12:18:22.950 ,7,0,0.,4.8,0.,4.8,1.,4.8,1.,4.8
1979-03-01 12:18:27.760 ,7,0,0.,4.8,0.,4.8,0.,4.8,1.,4.8
1979-03-01 12:18:32.550 ,7,0,0.,4.8,2.,4.8,0.,4.8,0.,4.8
1979-03-01 12:18:37.350 ,6,0,0.,4.8,0.,4.8,0.,4.8,0.,4.8
1979-03-01 12:18:42.150 ,6,0,0.,4.8,0.,4.8,1.,4.8,1.,4.8
1979-03-01 12:18:46.950 ,6,0,0.,4.8,3.,4.8,0.,4.8,2.,4.8
1979-03-01 12:18:51.760 ,6,0,0.,4.8,4.,4.8,1.,4.8,2.,4.8
1979-03-01 12:18:56.550 ,6,0,0.,4.8,3.,4.8,5.,4.8,1.,4.8
1979-03-01 12:19:01.350 ,5,0,0.,4.8,3.,4.8,2.,4.8,0.,4.8
1979-03-01 12:19:06.150 ,5,0,0.,4.8,5.,4.8,0.,4.8,1.,4.8
1979-03-01 12:19:10.950 ,5,0,0.,4.8,5.,4.8,1.,4.8,3.,4.8
1979-03-01 12:19:15.760 ,5,0,0.,4.8,3.,4.8,0.,4.8,1.,4.8
1979-03-01 12:19:20.550 ,5,0,0.,4.8,3.,4.8,0.,4.8,0.,4.8
1979-03-01 12:19:25.350 ,4,0,0.,4.8,3.,4.8,1.,4.8,0.,4.8
1979-03-01 12:19:30.150 ,4,0,0.,4.8,4.,4.8,0.,4.8,0.,4.8
1979-03-01 12:19:34.950 ,4,0,0.,4.8,16.,4.8,3.,4.8,1.,4.8
1979-03-01 12:19:39.760 ,4,0,0.,4.8,13.,4.8,6.,4.8,6.,4.8
1979-03-01 12:19:44.550 ,4,0,0.,4.8,11.,4.8,5.,4.8,4.,4.8
1979-03-01 12:19:49.350 ,3,0,0.,4.8,15.,4.8,6.,4.8,1.,4.8
1979-03-01 12:19:54.150 ,3,0,0.,4.8,18.,4.8,6.,4.8,2.,4.8
1979-03-01 12:19:58.950 ,3,0,1.,4.8,16.,4.8,2.,4.8,1.,4.8
1979-03-01 12:20:03.760 ,3,0,0.,4.8,17.,4.8,3.,4.8,2.,4.8
1979-03-01 12:20:08.550 ,3,0,0.,4.8,22.,4.8,3.,4.8,0.,4.8
1979-03-01 12:20:13.350 ,2,0,0.,4.8,11.,4.8,6.,4.8,3.,4.8
1979-03-01 12:20:18.150 ,2,0,0.,4.8,11.,4.8,8.,4.8,4.,4.8
1979-03-01 12:20:22.950 ,2,0,0.,4.8,18.,4.8,5.,4.8,1.,4.8
1979-03-01 12:20:27.760 ,2,0,0.,4.8,8.,4.8,3.,4.8,1.,4.8
1979-03-01 12:20:32.550 ,2,0,0.,4.8,8.,4.8,4.,4.8,1.,4.8
1979-03-01 12:20:37.350 ,1,0,0.,4.8,15.,4.8,1.,4.8,1.,4.8
1979-03-01 12:20:42.150 ,1,0,0.,4.8,14.,4.8,4.,4.8,1.,4.8
1979-03-01 12:20:46.950 ,1,0,0.,4.8,14.,4.8,5.,4.8,1.,4.8
1979-03-01 12:20:51.760 ,1,0,0.,4.8,16.,4.8,3.,4.8,0.,4.8
1979-03-01 12:20:56.550 ,1,0,0.,4.8,17.,4.8,0.,4.8,0.,4.8
1979-03-01 12:21:01.350 ,0,0,0.,4.8,10.,4.8,2.,4.8,2.,4.8
1979-03-01 12:21:06.150 ,0,0,0.,4.8,20.,4.8,6.,4.8,2.,4.8
1979-03-01 12:21:10.950 ,0,0,0.,4.8,17.,4.8,4.,4.8,3.,4.8
1979-03-01 12:21:15.760 ,0,0,0.,4.8,10.,4.8,3.,4.8,0.,4.8
1979-03-01 12:21:20.550 ,0,0,0.,4.8,12.,4.8,5.,4.8,2.,4.8
1979-03-01 12:21:25.350 ,0,0,0.,4.8,11.,4.8,2.,4.8,0.,4.8
1979-03-01 12:21:30.150 ,0,0,0.,4.8,12.,4.8,2.,4.8,2.,4.8
1979-03-01 12:21:34.950 ,0,0,0.,4.8,13.,4.8,3.,4.8,0.,4.8
1979-03-01 12:21:39.760 ,0,0,0.,4.8,15.,4.8,3.,4.8,0.,4.8
1979-03-01 12:21:44.550 ,0,0,0.,4.8,7.,4.8,4.,4.8,1.,4.8
1979-03-01 12:21:49.350 ,1,0,0.,4.8,12.,4.8,4.,4.8,3.,4.8
1979-03-01 12:21:54.150 ,1,0,0.,4.8,14.,4.8,4.,4.8,2.,4.8
1979-03-01 12:21:58.950 ,1,0,0.,4.8,16.,4.8,2.,4.8,2.,4.8
1979-03-01 12:22:03.760 ,1,0,1.,4.8,12.,4.8,5.,4.8,0.,4.8
1979-03-01 12:22:08.550 ,1,0,0.,4.8,18.,4.8,2.,4.8,2.,4.8
1979-03-01 12:22:13.350 ,2,0,0.,4.8,17.,4.8,2.,4.8,1.,4.8
1979-03-01 12:22:18.150 ,2,0,0.,4.8,15.,4.8,1.,4.8,2.,4.8
1979-03-01 12:22:22.950 ,2,0,0.,4.8,13.,4.8,1.,4.8,1.,4.8
1979-03-01 12:22:27.760 ,2,0,0.,4.8,15.,4.8,4.,4.8,1.,4.8
1979-03-01 12:22:32.550 ,2,0,0.,4.8,12.,4.8,4.,4.8,0.,4.8
1979-03-01 12:22:37.350 ,3,0,0.,4.8,14.,4.8,1.,4.8,3.,4.8
1979-03-01 12:22:42.150 ,3,0,0.,4.8,8.,4.8,2.,4.8,2.,4.8
1979-03-01 12:22:46.950 ,3,0,0.,4.8,14.,4.8,5.,4.8,0.,4.8
1979-03-01 12:22:51.760 ,3,0,0.,4.8,9.,4.8,7.,4.8,3.,4.8
1979-03-01 12:22:56.550 ,3,0,0.,4.8,17.,4.8,1.,4.8,4.,4.8
1979-03-01 12:23:01.350 ,4,0,0.,4.8,23.,4.8,6.,4.8,6.,4.8
1979-03-01 12:23:06.150 ,4,0,0.,4.8,24.,4.8,3.,4.8,2.,4.8
1979-03-01 12:23:10.950 ,4,0,0.,4.8,18.,4.8,6.,4.8,4.,4.8
1979-03-01 12:23:15.760 ,4,0,0.,4.8,12.,4.8,5.,4.8,4.,4.8
1979-03-01 12:23:20.550 ,4,0,0.,4.8,16.,4.8,3.,4.8,2.,4.8
1979-03-01 12:23:25.350 ,5,0,0.,4.8,20.,4.8,2.,4.8,3.,4.8
1979-03-01 12:23:30.150 ,5,0,0.,4.8,18.,4.8,6.,4.8,4.,4.8
1979-03-01 12:23:34.950 ,5,0,0.,4.8,11.,4.8,0.,4.8,1.,4.8
1979-03-01 12:23:39.760 ,5,0,0.,4.8,10.,4.8,3.,4.8,0.,4.8
1979-03-01 12:23:44.550 ,5,0,0.,4.8,6.,4.8,4.,4.8,0.,4.8
1979-03-01 12:23:49.350 ,6,0,0.,4.8,5.,4.8,5.,4.8,2.,4.8
1979-03-01 12:23:54.150 ,6,0,0.,4.8,6.,4.8,1.,4.8,1.,4.8
1979-03-01 12:23:58.950 ,6,0,0.,4.8,11.,4.8,5.,4.8,2.,4.8
1979-03-01 12:24:03.760 ,6,0,0.,4.8,10.,4.8,4.,4.8,1.,4.8
1979-03-01 12:24:08.550 ,6,0,0.,4.8,13.,4.8,2.,4.8,0.,4.8
1979-03-01 12:24:13.350 ,7,0,0.,4.8,8.,4.8,4.,4.8,2.,4.8
1979-03-01 12:24:18.150 ,7,0,0.,4.8,2.,4.8,0.,4.8,1.,4.8
1979-03-01 12:24:22.950 ,7,0,0.,4.8,1.,4.8,0.,4.8,0.,4.8
1979-03-01 12:24:27.760 ,7,0,0.,4.8,1.,4.8,1.,4.8,1.,4.8
1979-03-01 12:24:32.550 ,7,0,0.,4.8,1.,4.8,0.,4.8,1.,4.8
1979-03-01 12:24:37.350 ,7,0,0.,4.8,1.,4.8,1.,4.8,0.,4.8
1979-03-01 12:24:42.150 ,7,0,0.,4.8,0.,4.8,1.,4.8,0.,4.8
1979-03-01 12:24:46.950 ,7,0,0.,4.8,0.,4.8,1.,4.8,2.,4.8
1979-03-01 12:24:51.760 ,7,0,0.,4.8,1.,4.8,0.,4.8,2.,4.8
1979-03-01 12:24:56.550 ,7,0,0.,4.8,0.,4.8,0.,4.8,0.,4.8
1979-03-01 12:25:01.350 ,6,0,0.,4.8,2.,4.8,0.,4.8,1.,4.8
1979-03-01 12:25:06.150 ,6,0,0.,4.8,0.,4.8,1.,4.8,0.,4.8
1979-03-01 12:25:10.950 ,6,0,0.,4.8,9.,4.8,0.,4.8,3.,4.8
1979-03-01 12:25:15.760 ,6,0,0.,4.8,10.,4.8,1.,4.8,2.,4.8
1979-03-01 12:25:20.550 ,6,0,0.,4.8,6.,4.8,3.,4.8,0.,4.8
1979-03-01 12:25:25.350 ,5,0,0.,4.8,7.,4.8,5.,4.8,1.,4.8
1979-03-01 12:25:30.150 ,5,0,0.,4.8,6.,4.8,2.,4.8,1.,4.8
1979-03-01 12:25:34.950 ,5,0,0.,4.8,6.,4.8,0.,4.8,1.,4.8
1979-03-01 12:25:39.760 ,5,0,0.,4.8,4.,4.8,1.,4.8,0.,4.8
1979-03-01 12:25:44.550 ,5,0,0.,4.8,10.,4.8,1.,4.8,0.,4.8
1979-03-01 12:25:49.350 ,4,0,0.,4.8,6.,4.8,2.,4.8,0.,4.8
1979-03-01 12:25:54.150 ,4,0,0.,4.8,8.,4.8,4.,4.8,0.,4.8
1979-03-01 12:25:58.950 ,4,0,0.,4.8,18.,4.8,7.,4.8,4.,4.8
1979-03-01 12:26:03.760 ,4,0,0.,4.8,21.,4.8,5.,4.8,2.,4.8
1979-03-01 12:26:08.550 ,4,0,0.,4.8,16.,4.8,5.,4.8,3.,4.8
1979-03-01 12:26:13.350 ,3,0,0.,4.8,16.,4.8,7.,4.8,0.,4.8
1979-03-01 12:26:18.150 ,3,0,0.,4.8,14.,4.8,8.,4.8,3.,4.8
1979-03-01 12:26:22.950 ,3,0,0.,4.8,10.,4.8,3.,4.8,4.,4.8
1979-03-01 12:26:27.760 ,3,0,0.,4.8,15.,4.8,4.,4.8,2.,4.8
1979-03-01 12:26:32.550 ,3,0,0.,4.8,12.,4.8,8.,4.8,2.,4.8
1979-03-01 12:26:37.350 ,2,0,0.,4.8,23.,4.8,10.,4.8,3.,4.8
1979-03-01 12:26:42.150 ,2,0,0.,4.8,17.,4.8,5.,4.8,3.,4.8
1979-03-01 12:26:46.950 ,2,0,0.,4.8,15.,4.8,4.,4.8,2.,4.8
1979-03-01 12:26:51.760 ,2,0,0.,4.8,7.,4.8,6.,4.8,2.,4.8
1979-03-01 12:26:56.550 ,2,0,0.,4.8,13.,4.8,5.,4.8,0.,4.8
1979-03-01 12:27:01.350 ,1,0,0.,4.8,8.,4.8,7.,4.8,2.,4.8
1979-03-01 12:27:06.150 ,1,0,0.,4.8,15.,4.8,5.,4.8,3.,4.8
1979-03-01 12:27:10.950 ,1,0,0.,4.8,14.,4.8,3.,4.8,0.,4.8
1979-03-01 12:27:15.760 ,1,0,0.,4.8,15.,4.8,2.,4.8,1.,4.8
1979-03-01 12:27:20.550 ,1,0,0.,4.8,6.,4.8,3.,4.8,0.,4.8
1979-03-01 12:27:25.350 ,0,0,0.,4.8,12.,4.8,6.,4.8,0.,4.8
1979-03-01 12:27:30.150 ,0,0,0.,4.8,14.,4.8,7.,4.8,2.,4.8
1979-03-01 12:27:34.950 ,0,0,0.,4.8,11.,4.8,7.,4.8,2.,4.8
1979-03-01 12:27:39.760 ,0,0,0.,4.8,19.,4.8,7.,4.8,1.,4.8
1979-03-01 12:27:44.550 ,0,0,0.,4.8,11.,4.8,7.,4.8,4.,4.8
1979-03-01 12:27:49.350 ,0,0,0.,4.8,18.,4.8,2.,4.8,1.,4.8
1979-03-01 12:27:54.150 ,0,0,0.,4.8,17.,4.8,2.,4.8,2.,4.8
1979-03-01 12:27:58.950 ,0,0,0.,4.8,12.,4.8,0.,4.8,1.,4.8
1979-03-01 12:28:03.760 ,0,0,0.,4.8,26.,4.8,6.,4.8,2.,4.8
1979-03-01 12:28:08.550 ,0,0,0.,4.8,17.,4.8,2.,4.8,1.,4.8
1979-03-01 12:28:13.350 ,1,0,0.,4.8,13.,4.8,1.,4.8,0.,4.8
1979-03-01 12:28:18.150 ,1,0,0.,4.8,14.,4.8,2.,4.8,1.,4.8
1979-03-01 12:28:22.950 ,1,0,0.,4.8,16.,4.8,5.,4.8,2.,4.8
1979-03-01 12:28:27.760 ,1,0,0.,4.8,12.,4.8,4.,4.8,0.,4.8
1979-03-01 12:28:32.550 ,1,0,0.,4.8,13.,4.8,5.,4.8,1.,4.8
1979-03-01 12:28:37.350 ,2,0,0.,4.8,11.,4.8,3.,4.8,1.,4.8
1979-03-01 12:28:42.150 ,2,0,,0,,0,,0,,0
1979-03-01 12:28:46.950 ,2,0,0.,4.8,17.,4.8,3.,4.8,1.,4.8
1979-03-01 12:28:51.760 ,2,0,0.,4.8,12.,4.8,3.,4.8,3.,4.8
1979-03-01 12:28:56.550 ,2,0,0.,4.8,7.,4.8,5.,4.8,1.,4.8
1979-03-01 12:29:01.350 ,3,0,0.,4.8,19.,4.8,2.,4.8,1.,4.8
1979-03-01 12:29:06.150 ,3,0,0.,4.8,13.,4.8,6.,4.8,4.,4.8
1979-03-01 12:29:10.950 ,3,0,0.,4.8,28.,4.8,7.,4.8,5.,4.8
1979-03-01 12:29:15.760 ,3,0,0.,4.8,19.,4.8,10.,4.8,3.,4.8
1979-03-01 12:29:20.550 ,3,0,0.,4.8,28.,4.8,7.,4.8,6.,4.8
1979-03-01 12:29:25.350 ,4,0,0.,4.8,23.,4.8,6.,4.8,4.,4.8
1979-03-01 12:29:30.150 ,4,0,0.,4.8,28.,4.8,4.,4.8,5.,4.8
1979-03-01 12:29:34.950 ,4,0,0.,4.8,34.,4.8,9.,4.8,5.,4.8
1979-03-01 12:29:39.760 ,4,0,0.,4.8,33.,4.8,6.,4.8,4.,4.8
1979-03-01 12:29:44.550 ,4,0,0.,4.8,35.,4.8,6.,4.8,2.,4.8
1979-03-01 12:29:49.350 ,5,0,0.,4.8,35.,4.8,8.,4.8,1.,4.8
1979-03-01 12:29:54.150 ,5,0,0.,4.8,41.,4.8,11.,4.8,7.,4.8
1979-03-01 12:29:58.950 ,5,0,0.,4.8,7.,4.8,2.,4.8,1.,4.8
1979-03-01 12:30:03.760 ,5,0,0.,4.8,5.,4.8,4.,4.8,1.,4.8
1979-03-01 12:30:08.550 ,5,0,0.,4.8,8.,4.8,1.,4.8,2.,4.8
1979-03-01 12:30:13.350 ,6,0,0.,4.8,6.,4.8,1.,4.8,1.,4.8
1979-03-01 12:30:18.150 ,6,0,0.,4.8,6.,4.8,1.,4.8,1.,4.8
1979-03-01 12:30:22.950 ,6,0,0.,4.8,15.,4.8,4.,4.8,2.,4.8
1979-03-01 12:30:27.760 ,6,0,0.,4.8,7.,4.8,4.,4.8,0.,4.8
1979-03-01 12:30:32.550 ,6,0,0.,4.8,11.,4.8,4.,4.8,0.,4.8
1979-03-01 12:30:37.350 ,7,0,0.,4.8,12.,4.8,5.,4.8,0.,4.8
1979-03-01 12:30:42.150 ,7,0,0.,4.8,10.,4.8,3.,4.8,1.,4.8
1979-03-01 12:30:46.950 ,7,0,0.,4.8,1.,4.8,0.,4.8,0.,4.8
1979-03-01 12:30:51.760 ,7,0,0.,4.8,2.,4.8,0.,4.8,0.,4.8
1979-03-01 12:30:56.550 ,7,0,0.,4.8,0.,4.8,0.,4.8,0.,4.8
1979-03-01 12:31:01.350 ,7,0,0.,4.8,0.,4.8,1.,4.8,0.,4.8
1979-03-01 12:31:06.150 ,7,0,0.,4.8,1.,4.8,1.,4.8,0.,4.8
1979-03-01 12:31:10.950 ,7,0,0.,4.8,0.,4.8,0.,4.8,0.,4.8
1979-03-01 12:31:15.760 ,7,0,0.,4.8,0.,4.8,2.,4.8,0.,4.8
1979-03-01 12:31:20.550 ,7,0,0.,4.8,0.,4.8,0.,4.8,2.,4.8
1979-03-01 12:31:25.350 ,6,0,0.,4.8,1.,4.8,2.,4.8,0.,4.8
1979-03-01 12:31:30.150 ,6,0,0.,4.8,0.,4.8,0.,4.8,0.,4.8
1979-03-01 12:31:34.950 ,6,0,0.,4.8,10.,4.8,3.,4.8,2.,4.8
1979-03-01 12:31:39.760 ,6,0,0.,4.8,18.,4.8,4.,4.8,0.,4.8
1979-03-01 12:31:44.550 ,6,0,0.,4.8,15.,4.8,1.,4.8,0.,4.8
1979-03-01 12:31:49.350 ,5,0,0.,4.8,12.,4.8,2.,4.8,0.,4.8
1979-03-01 12:31:54.150 ,5,0,0.,4.8,15.,4.8,3.,4.8,0.,4.8
1979-03-01 12:31:58.950 ,5,0,0.,4.8,10.,4.8,1.,4.8,0.,4.8
1979-03-01 12:32:03.760 ,5,0,0.,4.8,10.,4.8,2.,4.8,2.,4.8
1979-03-01 12:32:08.550 ,5,0,0.,4.8,13.,4.8,2.,4.8,1.,4.8
1979-03-01 12:32:13.350 ,4,0,0.,4.8,11.,4.8,3.,4.8,0.,4.8
1979-03-01 12:32:18.150 ,4,0,0.,4.8,13.,4.8,1.,4.8,1.,4.8
1979-03-01 12:32:22.950 ,4,0,0.,4.8,62.,4.8,13.,4.8,7.,4.8
1979-03-01 12:32:27.760 ,4,0,0.,4.8,48.,4.8,18.,4.8,8.,4.8
1979-03-01 12:32:32.550 ,4,0,0.,4.8,45.,4.8,14.,4.8,3.,4.8
1979-03-01 12:32:37.350 ,3,0,0.,4.8,53.,4.8,20.,4.8,5.,4.8
1979-03-01 12:32:42.150 ,3,0,0.,4.8,54.,4.8,13.,4.8,8.,4.8
1979-03-01 12:32:46.950 ,3,0,0.,4.8,45.,4.8,2.,4.8,4.,4.8
1979-03-01 12:32:51.760 ,3,0,0.,4.8,34.,4.8,11.,4.8,2.,4.8
1979-03-01 12:32:56.550 ,3,0,0.,4.8,40.,4.8,5.,4.8,4.,4.8
1979-03-01 12:33:01.350 ,2,0,0.,4.8,33.,4.8,5.,4.8,9.,4.8
1979-03-01 12:33:06.150 ,2,0,0.,4.8,35.,4.8,8.,4.8,3.,4.8
1979-03-01 12:33:10.950 ,2,0,0.,4.8,13.,4.8,2.,4.8,1.,4.8
1979-03-01 12:33:15.760 ,2,0,0.,4.8,17.,4.8,2.,4.8,3.,4.8
1979-03-01 12:33:20.550 ,2,0,0.,4.8,27.,4.8,9.,4.8,1.,4.8
1979-03-01 12:33:25.350 ,1,0,0.,4.8,24.,4.8,5.,4.8,1.,4.8
1979-03-01 12:33:30.150 ,1,0,0.,4.8,27.,4.8,2.,4.8,2.,4.8
1979-03-01 12:33:34.950 ,1,0,0.,4.8,19.,4.8,2.,4.8,1.,4.8